Farmingdale, NY

1:11 AM EDT on March 27, 2017 (GMT -0400)
Republic

Weather History for KFRG - March, 2012

Change the Weather History Date:

Sunday, March 18, 2012

  Actual Average Record
Temperature  
Mean Temperature 48 °F -  
Max Temperature 57 °F 44 °F 75 °F (2011)
Min Temperature 41 °F 31 °F 23 °F (2014)
Degree Days  
Heating Degree Days 17    
Moisture  
Dew Point 44 °F    
Average Humidity 88    
Maximum Humidity 97    
Minimum Humidity 72    
Precipitation  
Precipitation 0.00 in - - ()
Sea Level Pressure  
Sea Level Pressure 30.32 in    
Wind  
Wind Speed 4 mph (SW)    
Max Wind Speed 10 mph    
Max Gust Speed -    
Visibility 7 miles    
Events      
Averages and records for this station are not official NWS values.
T = Trace of Precipitation, MM = Missing Value Source: NWS Daily Summary

Daily Weather History Graph

Daily Weather History Graph

Search for Another Location

Airport or City:

Trip Planner

Search our weather history database for the weather conditions in past years. The results will help you decide how hot, cold, wet, or windy it might be!

Date:

Astronomy

Mar. 18, 2012 Rise Set
Actual Time 6:59 AM EDT 7:04 PM EDT
Civil Twilight 6:32 AM EDT 7:31 PM EDT
Nautical Twilight 6:00 AM EDT 8:03 PM EDT
Astronomical Twilight 5:28 AM EDT 8:35 PM EDT
Moon 4:38 AM EDT (3/18) 3:27 PM EDT (3/18)
Length of Visible Light 12h 59m
Length of Day
12h 04m
Waning Crescent, 15% of the Moon is Illuminated
Mar 18
Waning Crescent
Mar 22
New
Mar 30
First Quarter
Apr 6
Full
Apr 13
Last Quarter

Hourly Weather History & Observations

Time (EDT) Temp. Windchill Dew Point Humidity Pressure Visibility Wind Dir Wind Speed Gust Speed Precip Events Conditions
12:53 AM 43.0 °F - 42.1 °F 97% 30.38 in 7.0 mi Calm Calm - N/A   Clear
1:53 AM 41.0 °F - 39.9 °F 96% 30.37 in 5.0 mi Calm Calm - N/A   Clear
2:31 AM 41.0 °F - 39.2 °F 93% 30.36 in 6.0 mi Calm Calm - N/A   Scattered Clouds
2:43 AM 42.8 °F - 39.2 °F 87% 30.36 in 6.0 mi Calm Calm - N/A   Mostly Cloudy
2:53 AM 42.1 °F - 41.0 °F 96% 30.37 in 7.0 mi Calm Calm - N/A   Overcast
3:53 AM 45.0 °F 42.6 °F 43.0 °F 93% 30.36 in 9.0 mi WSW 4.6 mph - N/A   Overcast
4:53 AM 45.0 °F 41.2 °F 43.0 °F 93% 30.35 in 10.0 mi WSW 6.9 mph - N/A   Overcast
5:53 AM 45.0 °F 41.2 °F 43.0 °F 93% 30.35 in 8.0 mi WSW 6.9 mph - N/A   Overcast
6:53 AM 45.0 °F 41.8 °F 43.0 °F 93% 30.36 in 7.0 mi SW 5.8 mph - N/A   Overcast
7:53 AM 45.0 °F 41.2 °F 43.0 °F 93% 30.36 in 6.0 mi WSW 6.9 mph - N/A   Overcast
8:53 AM 45.0 °F 41.2 °F 43.0 °F 93% 30.37 in 5.0 mi West 6.9 mph - N/A   Overcast
9:53 AM 46.9 °F - 44.1 °F 90% 30.38 in 4.0 mi Variable 4.6 mph - N/A   Overcast
10:41 AM 48.2 °F - 44.6 °F 87% 30.37 in 5.0 mi WSW 5.8 mph - N/A   Haze
10:53 AM 50.0 °F - 45.0 °F 83% 30.37 in 6.0 mi SSW 5.8 mph - N/A   Haze
11:53 AM 55.0 °F - 46.0 °F 72% 30.36 in 7.0 mi SSW 5.8 mph - N/A   Clear
12:53 PM 55.0 °F - 46.0 °F 72% 30.34 in 7.0 mi SSW 9.2 mph - N/A   Clear
1:53 PM 55.0 °F - 46.0 °F 72% 30.32 in 7.0 mi SSW 10.4 mph - N/A   Clear
2:53 PM 55.9 °F - 46.9 °F 72% 30.29 in 8.0 mi SSW 8.1 mph - N/A   Clear
3:53 PM 55.9 °F - 46.9 °F 72% 30.27 in 8.0 mi SSW 9.2 mph - N/A   Clear
4:53 PM 53.1 °F - 46.0 °F 77% 30.26 in 7.0 mi SSW 9.2 mph - N/A   Clear
5:53 PM 50.0 °F - 44.6 °F 82% 30.24 in 9.0 mi SSW 6.9 mph - N/A   Clear
6:53 PM 46.0 °F 42.5 °F 44.1 °F 93% 30.23 in 7.0 mi SSW 6.9 mph - N/A   Clear
7:53 PM 46.0 °F 43.1 °F 44.1 °F 93% 30.23 in 9.0 mi SSW 5.8 mph - N/A   Clear
8:53 PM 45.0 °F 41.8 °F 44.1 °F 97% 30.23 in 9.0 mi SSW 5.8 mph - N/A   Clear
9:53 PM 45.0 °F 43.5 °F 44.1 °F 97% 30.23 in 8.0 mi SSW 3.5 mph - N/A   Clear
10:53 PM 45.0 °F 42.6 °F 44.1 °F 97% 30.23 in 9.0 mi SSW 4.6 mph - N/A   Clear
11:53 PM 46.0 °F 43.9 °F 44.1 °F 93% 30.22 in 9.0 mi SW 4.6 mph - N/A   Clear